ANS545 SAZS-SAEZ

Flight info

Callsign ANS545
Flight time N/A
Altitude 35000
Route LIMAY2C LIMAY UZ109 ISMIL UT655 ASADA
Aircraft B738/M-SDE2E3FGHIRWXY/LB1

Departure

Time 2026-04-28 00:30
Airport Teniente Luis Candelaria International Airport (SAZS)

Arrival

Time N/A
Airport Ezeiza International Airport - Ministro Pistarini (SAEZ)
Time Latitude Longitude Altitude Speed Heading
2026-04-28 00:06 -41.14655 -71.16226 2748 ft 0 kts 68°
2026-04-28 00:18 -41.14656 -71.16230 2748 ft 3 kts 66°
2026-04-28 00:18 -41.14665 -71.16250 2751 ft 3 kts 29°
2026-04-28 00:18 -41.14682 -71.16256 2750 ft 3 kts 348°
2026-04-28 00:19 -41.14701 -71.16247 2749 ft 3 kts 332°
2026-04-28 00:19 -41.14718 -71.16234 2750 ft 3 kts 324°
2026-04-28 00:19 -41.14734 -71.16217 2749 ft 3 kts 320°
2026-04-28 00:19 -41.14747 -71.16203 2750 ft 3 kts 323°
2026-04-28 00:20 -41.14764 -71.16190 2751 ft 3 kts 345°
2026-04-28 00:20 -41.14782 -71.16187 2751 ft 3 kts 18°
2026-04-28 00:20 -41.14795 -71.16197 2750 ft 3 kts 75°
2026-04-28 00:20 -41.14793 -71.16215 2750 ft 3 kts 116°
2026-04-28 00:21 -41.14785 -71.16239 2752 ft 3 kts 111°
2026-04-28 00:21 -41.14781 -71.16253 2750 ft 0 kts 115°
2026-04-28 00:24 -41.14788 -71.16234 2750 ft 7 kts 115°
2026-04-28 00:25 -41.14815 -71.16156 2749 ft 10 kts 115°
2026-04-28 00:25 -41.14844 -71.16074 2749 ft 10 kts 115°
2026-04-28 00:25 -41.14872 -71.15995 2750 ft 9 kts 115°
2026-04-28 00:25 -41.14899 -71.15917 2751 ft 9 kts 115°
2026-04-28 00:26 -41.14925 -71.15841 2748 ft 9 kts 115°
2026-04-28 00:26 -41.14964 -71.15733 2748 ft 17 kts 115°
2026-04-28 00:26 -41.15017 -71.15581 2748 ft 18 kts 114°
2026-04-28 00:26 -41.15068 -71.15433 2751 ft 17 kts 115°
2026-04-28 00:27 -41.15118 -71.15290 2748 ft 17 kts 115°
2026-04-28 00:27 -41.15150 -71.15198 2748 ft 16 kts 115°
2026-04-28 00:27 -41.15197 -71.15064 2749 ft 16 kts 115°
2026-04-28 00:27 -41.15256 -71.14894 2751 ft 15 kts 115°
2026-04-28 00:28 -41.15298 -71.14772 2749 ft 14 kts 115°
2026-04-28 00:28 -41.15326 -71.14692 2750 ft 14 kts 115°
2026-04-28 00:28 -41.15378 -71.14546 2748 ft 10 kts 115°
2026-04-28 00:28 -41.15396 -71.14493 2748 ft 9 kts 117°
2026-04-28 00:29 -41.15450 -71.14475 2748 ft 9 kts 201°
2026-04-28 00:29 -41.15504 -71.14506 2748 ft 8 kts 204°
2026-04-28 00:29 -41.15532 -71.14565 2748 ft 8 kts 285°
2026-04-28 00:29 -41.15504 -71.14647 2750 ft 20 kts 295°
2026-04-28 00:30 -41.15347 -71.15095 2751 ft 86 kts 295°
2026-04-28 00:30 -41.15007 -71.16069 2759 ft 143 kts 295°
2026-04-28 00:30 -41.14548 -71.17391 3092 ft 164 kts 295°
2026-04-28 00:30 -41.14084 -71.18776 3658 ft 168 kts 294°
2026-04-28 00:31 -41.13601 -71.20209 4263 ft 172 kts 294°
2026-04-28 00:31 -41.13095 -71.21682 4963 ft 181 kts 293°
2026-04-28 00:31 -41.12540 -71.23307 5226 ft 203 kts 292°
2026-04-28 00:31 -41.11952 -71.25066 5663 ft 214 kts 292°
2026-04-28 00:32 -41.11332 -71.26931 5992 ft 230 kts 292°
2026-04-28 00:32 -41.10665 -71.28908 6526 ft 239 kts 291°
2026-04-28 00:32 -41.09978 -71.30936 7273 ft 241 kts 291°
2026-04-28 00:32 -41.09286 -71.32980 7979 ft 246 kts 290°
2026-04-28 00:33 -41.08578 -71.35070 8659 ft 251 kts 290°
2026-04-28 00:33 -41.07515 -71.36968 9319 ft 268 kts 315°
2026-04-28 00:33 -41.05815 -71.38139 9981 ft 286 kts 340°
2026-04-28 00:33 -41.03782 -71.38295 10581 ft 301 kts
2026-04-28 00:34 -41.01837 -71.37258 11283 ft 305 kts 37°
2026-04-28 00:34 -41.00443 -71.35227 11952 ft 302 kts 66°
2026-04-28 00:34 -40.99925 -71.32603 12591 ft 293 kts 98°
2026-04-28 00:34 -41.00317 -71.30008 13260 ft 286 kts 113°
2026-04-28 00:35 -41.00881 -71.27463 13870 ft 293 kts 105°
2026-04-28 00:35 -41.00736 -71.24707 14392 ft 310 kts 72°
2026-04-28 00:35 -40.99778 -71.22137 15047 ft 313 kts 64°
2026-04-28 00:35 -40.98698 -71.19606 15639 ft 317 kts 63°
2026-04-28 00:36 -40.97612 -71.17057 16253 ft 320 kts 64°
2026-04-28 00:36 -40.96523 -71.14464 16858 ft 322 kts 64°
2026-04-28 00:36 -40.95438 -71.11854 17451 ft 326 kts 64°
2026-04-28 00:36 -40.94338 -71.09197 17924 ft 335 kts 64°
2026-04-28 00:37 -40.93184 -71.06410 18050 ft 354 kts 64°
2026-04-28 00:37 -40.91989 -71.03525 18213 ft 372 kts 64°
2026-04-28 00:37 -40.90698 -71.00414 18360 ft 390 kts 64°
2026-04-28 00:37 -40.89377 -70.97235 18503 ft 406 kts 64°
2026-04-28 00:38 -40.88001 -70.93934 18851 ft 414 kts 64°
2026-04-28 00:38 -40.86601 -70.90581 19381 ft 417 kts 64°
2026-04-28 00:38 -40.85192 -70.87210 19961 ft 420 kts 64°
2026-04-28 00:38 -40.83770 -70.83810 20398 ft 426 kts 64°
2026-04-28 00:39 -40.82331 -70.80369 20858 ft 430 kts 64°
2026-04-28 00:39 -40.80879 -70.76900 21367 ft 433 kts 64°
2026-04-28 00:39 -40.79420 -70.73421 21869 ft 436 kts 64°
2026-04-28 00:39 -40.77945 -70.69903 22346 ft 439 kts 64°
2026-04-28 00:40 -40.76454 -70.66352 22807 ft 443 kts 64°
2026-04-28 00:40 -40.74951 -70.62790 23282 ft 447 kts 63°
2026-04-28 00:40 -40.73131 -70.59436 23702 ft 454 kts 51°
2026-04-28 00:40 -40.70957 -70.56390 24129 ft 457 kts 48°
2026-04-28 00:41 -40.68728 -70.53388 24540 ft 459 kts 48°
2026-04-28 00:41 -40.66532 -70.50394 24959 ft 460 kts 49°
2026-04-28 00:41 -40.64335 -70.47314 25369 ft 462 kts 49°
2026-04-28 00:41 -40.62149 -70.44203 25732 ft 464 kts 50°
2026-04-28 00:42 -40.59965 -70.41045 26082 ft 466 kts 52°
2026-04-28 00:42 -40.57937 -70.37714 26432 ft 467 kts 56°
2026-04-28 00:42 -40.55975 -70.34274 26788 ft 469 kts 57°
2026-04-28 00:42 -40.54037 -70.30799 27147 ft 471 kts 57°
2026-04-28 00:43 -40.52103 -70.27321 27488 ft 473 kts 57°
2026-04-28 00:43 -40.50147 -70.23829 27830 ft 475 kts 57°
2026-04-28 00:43 -40.48175 -70.20340 28161 ft 477 kts 56°
2026-04-28 00:43 -40.46186 -70.16845 28550 ft 478 kts 56°
2026-04-28 00:44 -40.44183 -70.13347 28945 ft 479 kts 56°
2026-04-28 00:44 -40.42174 -70.09850 29280 ft 480 kts 56°
2026-04-28 00:44 -40.40158 -70.06348 29543 ft 483 kts 56°
2026-04-28 00:44 -40.38124 -70.02817 29804 ft 486 kts 56°
2026-04-28 00:45 -40.36219 -69.99514 30048 ft 487 kts 56°
2026-04-28 00:45 -40.34174 -69.95973 30314 ft 489 kts 56°
2026-04-28 00:45 -40.32115 -69.92408 30549 ft 490 kts 56°
2026-04-28 00:45 -40.30028 -69.88802 30840 ft 491 kts 56°
2026-04-28 00:46 -40.27990 -69.85283 31199 ft 489 kts 55°
2026-04-28 00:46 -40.25942 -69.81751 31616 ft 486 kts 55°
2026-04-28 00:46 -40.23889 -69.78215 31965 ft 485 kts 55°
2026-04-28 00:46 -40.21850 -69.74705 32216 ft 486 kts 55°
2026-04-28 00:47 -40.19800 -69.71179 32460 ft 486 kts 55°
2026-04-28 00:47 -40.17755 -69.67667 32782 ft 485 kts 55°
2026-04-28 00:47 -40.15713 -69.64164 33109 ft 484 kts 55°
2026-04-28 00:47 -40.13667 -69.60659 33361 ft 485 kts 55°
2026-04-28 00:48 -40.11615 -69.57145 33553 ft 486 kts 55°
2026-04-28 00:48 -40.09560 -69.53630 33804 ft 486 kts 55°
2026-04-28 00:48 -40.07504 -69.50119 34085 ft 486 kts 54°
2026-04-28 00:48 -40.05451 -69.46618 34307 ft 485 kts 54°
2026-04-28 00:49 -40.03394 -69.43112 34479 ft 487 kts 54°
2026-04-28 00:49 -40.01358 -69.39646 34650 ft 487 kts 54°
2026-04-28 00:49 -39.99303 -69.36153 34866 ft 487 kts 54°
2026-04-28 00:49 -39.97237 -69.32645 35025 ft 488 kts 54°
2026-04-28 00:50 -39.95161 -69.29121 35010 ft 491 kts 54°
2026-04-28 00:50 -39.91003 -69.22081 35012 ft 488 kts 54°
2026-04-28 00:51 -39.86874 -69.15103 35020 ft 485 kts 53°
2026-04-28 00:51 -39.82738 -69.08129 35004 ft 482 kts 53°
2026-04-28 00:52 -39.78663 -69.01274 35016 ft 481 kts 53°
2026-04-28 00:52 -39.74661 -68.94555 35017 ft 481 kts 53°
2026-04-28 00:53 -39.70556 -68.87677 35020 ft 482 kts 53°
2026-04-28 00:53 -39.66433 -68.80785 35028 ft 484 kts 52°
2026-04-28 00:54 -39.62286 -68.73868 35021 ft 487 kts 52°
2026-04-28 00:54 -39.58109 -68.66916 35024 ft 489 kts 52°
2026-04-28 00:55 -39.53918 -68.59956 35005 ft 491 kts 52°
2026-04-28 00:55 -39.49698 -68.52963 35009 ft 492 kts 52°
2026-04-28 00:56 -39.45467 -68.45967 35008 ft 494 kts 51°
2026-04-28 00:56 -39.41253 -68.39014 35010 ft 494 kts 51°
2026-04-28 00:57 -39.37008 -68.32023 35000 ft 493 kts 51°
2026-04-28 00:57 -39.32765 -68.25053 35001 ft 492 kts 51°
2026-04-28 00:58 -39.28528 -68.18115 34993 ft 491 kts 51°
2026-04-28 00:58 -39.24294 -68.11196 34993 ft 490 kts 51°
2026-04-28 00:59 -39.20073 -68.04310 34986 ft 489 kts 51°
2026-04-28 00:59 -39.15968 -67.97625 34993 ft 488 kts 50°
2026-04-28 01:00 -39.11773 -67.90809 34998 ft 488 kts 50°
2026-04-28 01:00 -39.07538 -67.83942 34993 ft 489 kts 50°
2026-04-28 01:01 -39.03297 -67.77081 35000 ft 490 kts 50°
2026-04-28 01:01 -38.99051 -67.70226 35001 ft 491 kts 50°
2026-04-28 01:02 -38.94780 -67.63346 35001 ft 492 kts 50°
2026-04-28 01:02 -38.90495 -67.56458 35000 ft 493 kts 50°
2026-04-28 01:03 -38.86204 -67.49575 34996 ft 494 kts 50°
2026-04-28 01:03 -38.81904 -67.42692 34990 ft 494 kts 50°
2026-04-28 01:04 -38.77624 -67.35856 34993 ft 494 kts 50°
2026-04-28 01:04 -38.73322 -67.28998 34993 ft 493 kts 50°
2026-04-28 01:05 -38.69017 -67.22152 34986 ft 493 kts 50°
2026-04-28 01:05 -38.65435 -67.16465 34989 ft 493 kts 49°
2026-04-28 01:06 -38.61129 -67.09645 34996 ft 492 kts 49°
2026-04-28 01:06 -38.56824 -67.02838 34982 ft 491 kts 49°
2026-04-28 01:07 -38.52620 -66.96206 34992 ft 492 kts 49°
2026-04-28 01:07 -38.48336 -66.89461 34995 ft 492 kts 49°
2026-04-28 01:08 -38.44009 -66.82662 34993 ft 494 kts 48°
2026-04-28 01:08 -38.39642 -66.75814 35006 ft 495 kts 48°
2026-04-28 01:09 -38.35311 -66.69037 34999 ft 497 kts 48°
2026-04-28 01:09 -38.31485 -66.61614 35022 ft 501 kts 60°
2026-04-28 01:10 -38.28256 -66.53784 35011 ft 503 kts 61°
2026-04-28 01:10 -38.25008 -66.45889 34975 ft 503 kts 60°
2026-04-28 01:11 -38.21708 -66.38018 35001 ft 504 kts 59°
2026-04-28 01:11 -38.18377 -66.30165 35010 ft 504 kts 59°
2026-04-28 01:12 -38.15035 -66.22316 35006 ft 505 kts 59°
2026-04-28 01:12 -38.11686 -66.14465 35008 ft 505 kts 59°
2026-04-28 01:13 -38.08336 -66.06624 35006 ft 505 kts 59°
2026-04-28 01:13 -38.03415 -65.95142 35013 ft 503 kts 59°
2026-04-28 01:14 -38.00085 -65.87395 35008 ft 502 kts 58°
2026-04-28 01:14 -37.96748 -65.79651 35021 ft 501 kts 58°
2026-04-28 01:15 -37.93407 -65.71918 35026 ft 501 kts 58°
2026-04-28 01:15 -37.90045 -65.64155 35019 ft 501 kts 58°
2026-04-28 01:16 -37.86690 -65.56426 35018 ft 500 kts 58°
2026-04-28 01:16 -37.83350 -65.48750 35023 ft 500 kts 58°
2026-04-28 01:17 -37.79972 -65.41006 35017 ft 499 kts 58°
2026-04-28 01:17 -37.76628 -65.33357 35015 ft 500 kts 58°
2026-04-28 01:18 -37.73261 -65.25675 35023 ft 500 kts 58°
2026-04-28 01:18 -37.69861 -65.17938 35024 ft 501 kts 58°
2026-04-28 01:19 -37.66474 -65.10245 35024 ft 501 kts 58°
2026-04-28 01:19 -37.63077 -65.02550 35024 ft 502 kts 58°
2026-04-28 01:20 -37.59778 -64.95095 35024 ft 502 kts 58°
2026-04-28 01:20 -37.56390 -64.87456 35018 ft 502 kts 58°
2026-04-28 01:21 -37.52975 -64.79773 35024 ft 502 kts 58°
2026-04-28 01:21 -37.49558 -64.72104 35022 ft 501 kts 58°
2026-04-28 01:22 -37.46130 -64.64430 35026 ft 501 kts 58°
2026-04-28 01:22 -37.42710 -64.56790 35025 ft 501 kts 58°
2026-04-28 01:23 -37.39288 -64.49162 35031 ft 500 kts 58°
2026-04-28 01:23 -37.35869 -64.41556 35014 ft 499 kts 58°
2026-04-28 01:24 -37.32442 -64.33971 35011 ft 499 kts 57°
2026-04-28 01:24 -37.28984 -64.26410 35022 ft 499 kts 57°
2026-04-28 01:25 -37.25512 -64.18850 35027 ft 499 kts 57°
2026-04-28 01:25 -37.22039 -64.11294 35030 ft 499 kts 57°
2026-04-28 01:26 -37.18568 -64.03751 35024 ft 500 kts 57°
2026-04-28 01:26 -37.15182 -63.96408 35024 ft 501 kts 57°
2026-04-28 01:27 -37.11689 -63.88850 35022 ft 501 kts 57°
2026-04-28 01:27 -37.08187 -63.81291 35033 ft 502 kts 57°
2026-04-28 01:28 -37.04673 -63.73725 35040 ft 503 kts 57°
2026-04-28 01:28 -37.01065 -63.65972 35029 ft 504 kts 57°
2026-04-28 01:29 -36.97555 -63.58449 35033 ft 504 kts 57°
2026-04-28 01:29 -36.94010 -63.50866 35029 ft 505 kts 57°
2026-04-28 01:30 -36.90465 -63.43301 35042 ft 504 kts 57°
2026-04-28 01:30 -36.86915 -63.35744 35044 ft 505 kts 57°
2026-04-28 01:31 -36.83353 -63.28179 35046 ft 505 kts 57°
2026-04-28 01:31 -36.79784 -63.20616 35038 ft 506 kts 57°
2026-04-28 01:32 -36.76200 -63.13038 35042 ft 507 kts 57°
2026-04-28 01:32 -36.72608 -63.05458 35036 ft 507 kts 56°
2026-04-28 01:33 -36.69127 -62.98132 35045 ft 507 kts 56°
2026-04-28 01:33 -36.66109 -62.91791 35047 ft 507 kts 56°
2026-04-28 01:34 -36.61918 -62.83008 35051 ft 507 kts 56°
2026-04-28 01:34 -36.58897 -62.76690 35042 ft 507 kts 56°
2026-04-28 01:35 -36.55288 -62.69158 35059 ft 506 kts 56°
2026-04-28 01:35 -36.51681 -62.61646 35059 ft 506 kts 56°
2026-04-28 01:36 -36.48098 -62.54203 35033 ft 505 kts 56°
2026-04-28 01:36 -36.44475 -62.46693 35054 ft 504 kts 56°
2026-04-28 01:37 -36.40882 -62.39261 35061 ft 504 kts 56°
2026-04-28 01:37 -36.37265 -62.31798 35065 ft 505 kts 56°
2026-04-28 01:38 -36.33635 -62.24321 35063 ft 505 kts 56°
2026-04-28 01:38 -36.29995 -62.16843 35059 ft 506 kts 56°
2026-04-28 01:39 -36.26370 -62.09410 35066 ft 506 kts 56°
2026-04-28 01:39 -36.22715 -62.01933 35066 ft 508 kts 56°
2026-04-28 01:40 -36.19126 -61.94608 35081 ft 516 kts 56°
2026-04-28 01:40 -36.15370 -61.86958 35081 ft 524 kts 56°
2026-04-28 01:41 -36.11558 -61.79205 35078 ft 530 kts 56°
2026-04-28 01:41 -36.07701 -61.71375 35070 ft 533 kts 56°
2026-04-28 01:42 -36.03857 -61.63576 35070 ft 534 kts 56°
2026-04-28 01:42 -35.99994 -61.55753 35070 ft 534 kts 55°
2026-04-28 01:43 -35.96128 -61.47945 35064 ft 534 kts 55°
2026-04-28 01:43 -35.92246 -61.40122 35072 ft 533 kts 55°